TimeEST,TemperatureF,Dew PointF,Humidity,Sea Level PressureIn,VisibilityMPH,Wind Direction,Wind SpeedMPH,Gust SpeedMPH,PrecipitationIn,Events,Conditions,WindDirDegrees,DateUTC
12:15 AM,32.0,8.6,38,30.24,10.0,Calm,Calm,-,N/A,,Clear,0,2013-02-18 05:15:00
12:35 AM,31.5,8.8,39,30.25,10.0,Calm,Calm,-,N/A,,Clear,0,2013-02-18 05:35:00
12:55 AM,29.5,9.1,43,30.25,10.0,Calm,Calm,-,N/A,,Clear,0,2013-02-18 05:55:00
1:15 AM,29.1,9.3,44,30.25,10.0,Calm,Calm,-,N/A,,Clear,0,2013-02-18 06:15:00
1:35 AM,25.9,10.8,53,30.26,10.0,Calm,Calm,-,N/A,,Clear,0,2013-02-18 06:35:00
1:55 AM,27.0,10.6,50,30.27,10.0,Calm,Calm,-,N/A,,Clear,0,2013-02-18 06:55:00
2:15 AM,26.6,10.9,52,30.27,10.0,Calm,Calm,-,N/A,,Clear,0,2013-02-18 07:15:00
2:35 AM,26.6,10.6,51,30.27,10.0,Calm,Calm,-,N/A,,Clear,0,2013-02-18 07:35:00
2:55 AM,24.1,12.7,62,30.27,10.0,Calm,Calm,-,N/A,,Clear,0,2013-02-18 07:55:00
3:15 AM,25.3,11.5,56,30.27,10.0,Calm,Calm,-,N/A,,Clear,0,2013-02-18 08:15:00
3:35 AM,23.9,13.1,63,30.28,10.0,Calm,Calm,-,N/A,,Clear,0,2013-02-18 08:35:00
3:55 AM,21.2,14.2,74,30.29,10.0,Calm,Calm,-,N/A,,Clear,0,2013-02-18 08:55:00
4:15 AM,23.7,13.1,64,30.29,10.0,Calm,Calm,-,N/A,,Clear,0,2013-02-18 09:15:00
4:35 AM,22.8,13.8,68,30.29,10.0,Calm,Calm,-,N/A,,Clear,0,2013-02-18 09:35:00
4:55 AM,24.1,12.6,62,30.30,10.0,Calm,Calm,-,N/A,,Clear,0,2013-02-18 09:55:00
5:15 AM,22.1,13.1,68,30.30,10.0,Calm,Calm,-,N/A,,Clear,0,2013-02-18 10:15:00
5:35 AM,21.2,14.0,74,30.31,10.0,Calm,Calm,-,N/A,,Clear,0,2013-02-18 10:35:00
5:55 AM,22.1,13.6,70,30.31,10.0,Calm,Calm,-,N/A,,Clear,0,2013-02-18 10:55:00
6:15 AM,23.0,12.4,64,30.31,10.0,Calm,Calm,-,N/A,,Clear,0,2013-02-18 11:15:00
6:35 AM,20.7,14.4,77,30.32,10.0,Calm,Calm,-,N/A,,Clear,0,2013-02-18 11:35:00
7:15 AM,20.3,15.1,80,30.33,10.0,WNW,3.5,-,N/A,,Clear,300,2013-02-18 12:15:00
7:35 AM,21.2,15.3,78,30.33,10.0,Calm,Calm,-,N/A,,Clear,0,2013-02-18 12:35:00
7:55 AM,23.7,14.9,69,30.34,10.0,Calm,Calm,-,N/A,,Clear,0,2013-02-18 12:55:00
8:15 AM,25.0,17.2,72,30.34,10.0,Calm,Calm,-,N/A,,Clear,0,2013-02-18 13:15:00
8:35 AM,28.0,17.4,64,30.35,10.0,Calm,Calm,-,N/A,,Clear,0,2013-02-18 13:35:00
8:55 AM,31.5,16.7,54,30.35,10.0,Calm,Calm,-,N/A,,Clear,0,2013-02-18 13:55:00
9:15 AM,32.4,15.3,49,30.36,7.0,Calm,Calm,-,N/A,,Clear,0,2013-02-18 14:15:00
9:35 AM,34.2,13.5,43,30.35,10.0,South,3.5,-,N/A,,Clear,180,2013-02-18 14:35:00
9:55 AM,35.6,13.1,40,30.36,10.0,South,3.5,-,N/A,,Clear,190,2013-02-18 14:55:00
10:15 AM,37.8,13.8,38,30.36,10.0,Calm,Calm,-,N/A,,Clear,0,2013-02-18 15:15:00
10:35 AM,38.8,13.5,35,30.36,10.0,Calm,Calm,-,N/A,,Clear,0,2013-02-18 15:35:00
10:55 AM,40.5,15.6,37,30.35,10.0,Calm,Calm,-,N/A,,Clear,0,2013-02-18 15:55:00
11:15 AM,41.5,15.8,35,30.34,10.0,South,4.6,-,N/A,,Clear,170,2013-02-18 16:15:00
11:35 AM,43.2,15.8,33,30.34,10.0,Calm,Calm,-,N/A,,Clear,0,2013-02-18 16:35:00
11:55 AM,44.8,16.9,33,30.33,10.0,Calm,Calm,-,N/A,,Clear,0,2013-02-18 16:55:00
12:15 PM,46.6,17.6,32,30.32,10.0,SSE,3.5,-,N/A,,Clear,160,2013-02-18 17:15:00
12:35 PM,47.7,18.0,31,30.31,10.0,Calm,Calm,-,N/A,,Clear,0,2013-02-18 17:35:00
12:55 PM,47.8,18.5,31,30.30,10.0,SSE,3.5,-,N/A,,Clear,150,2013-02-18 17:55:00
1:15 PM,48.4,19.0,31,30.30,10.0,SSE,4.6,-,N/A,,Clear,160,2013-02-18 18:15:00
1:35 PM,49.5,19.8,31,30.29,10.0,South,9.2,-,N/A,,Clear,170,2013-02-18 18:35:00
1:55 PM,49.3,19.8,31,30.28,10.0,South,8.1,-,N/A,,Clear,170,2013-02-18 18:55:00
2:15 PM,50.2,20.7,31,30.27,10.0,SSW,6.9,-,N/A,,Clear,210,2013-02-18 19:15:00
2:35 PM,52.0,21.4,30,30.26,10.0,SSW,3.5,-,N/A,,Clear,210,2013-02-18 19:35:00
2:55 PM,52.5,21.9,30,30.25,10.0,South,12.7,17.3,N/A,,Clear,190,2013-02-18 19:55:00
3:15 PM,53.2,22.5,30,30.24,10.0,South,5.8,-,N/A,,Clear,190,2013-02-18 20:15:00
3:35 PM,54.0,22.3,29,30.24,10.0,SSW,6.9,-,N/A,,Clear,210,2013-02-18 20:35:00
3:55 PM,53.4,22.1,30,30.24,10.0,South,10.4,16.1,N/A,,Clear,170,2013-02-18 20:55:00
4:15 PM,54.0,22.3,29,30.24,10.0,South,10.4,16.1,N/A,,Clear,180,2013-02-18 21:15:00
4:35 PM,54.5,23.4,30,30.23,10.0,South,11.5,17.3,N/A,,Clear,190,2013-02-18 21:35:00
4:55 PM,54.0,22.8,30,30.23,10.0,South,12.7,17.3,N/A,,Clear,180,2013-02-18 21:55:00
5:15 PM,52.9,22.5,31,30.23,10.0,South,8.1,-,N/A,,Clear,190,2013-02-18 22:15:00
5:35 PM,52.2,22.6,32,30.23,10.0,South,10.4,-,N/A,,Clear,180,2013-02-18 22:35:00
5:55 PM,50.9,22.6,33,30.23,10.0,South,6.9,-,N/A,,Clear,180,2013-02-18 22:55:00
6:15 PM,49.1,23.0,36,30.23,10.0,South,6.9,-,N/A,,Clear,180,2013-02-18 23:15:00
6:35 PM,46.8,23.4,40,30.23,10.0,South,6.9,-,N/A,,Clear,170,2013-02-18 23:35:00
6:55 PM,47.5,23.5,39,30.23,10.0,South,6.9,-,N/A,,Clear,170,2013-02-18 23:55:00
7:15 PM,45.3,23.7,43,30.23,10.0,SSE,6.9,-,N/A,,Clear,160,2013-02-19 00:15:00
7:35 PM,46.4,23.4,40,30.23,10.0,SSE,4.6,-,N/A,,Clear,160,2013-02-19 00:35:00
7:55 PM,45.5,23.5,42,30.22,10.0,SSE,4.6,-,N/A,,Clear,160,2013-02-19 00:55:00
8:15 PM,42.8,23.7,47,30.22,10.0,South,6.9,-,N/A,,Clear,170,2013-02-19 01:15:00
8:35 PM,43.0,24.1,47,30.21,10.0,SSE,9.2,-,N/A,,Clear,160,2013-02-19 01:35:00
8:55 PM,42.6,23.9,48,30.22,10.0,South,9.2,-,N/A,,Clear,170,2013-02-19 01:55:00
9:15 PM,41.9,24.1,49,30.22,10.0,South,6.9,-,N/A,,Clear,170,2013-02-19 02:15:00
9:35 PM,41.4,23.9,50,30.22,10.0,South,6.9,-,N/A,,Clear,180,2013-02-19 02:35:00
9:55 PM,42.8,23.9,47,30.22,10.0,South,8.1,-,N/A,,Scattered Clouds,190,2013-02-19 02:55:00
10:15 PM,42.3,23.7,48,30.21,10.0,South,5.8,-,N/A,,Scattered Clouds,190,2013-02-19 03:15:00
10:35 PM,41.2,23.9,50,30.19,10.0,South,5.8,-,N/A,,Mostly Cloudy,180,2013-02-19 03:35:00
10:55 PM,39.7,23.7,53,30.20,10.0,South,5.8,-,N/A,,Scattered Clouds,190,2013-02-19 03:55:00
11:15 PM,38.3,24.6,58,30.19,10.0,South,5.8,-,N/A,,Clear,180,2013-02-19 04:15:00
11:35 PM,39.0,24.3,55,30.19,10.0,South,4.6,-,N/A,,Clear,170,2013-02-19 04:35:00
11:55 PM,40.5,23.9,52,30.18,10.0,SE,3.5,-,N/A,,Clear,140,2013-02-19 04:55:00